Time,TemperatureF,DewpointF,PressureIn,WindDirection,WindDirectionDegrees,WindSpeedMPH,WindSpeedGustMPH,Humidity,HourlyPrecipIn,Conditions,Clouds,dailyrainin,SoftwareType,DateUTC
2014-07-22 00:14:00,75.1,70.0,30.05,ENE,67,0.0,0.0,85,0.00,,,0.00,weatherlink.com 1.10,2014-07-22 04:14:00,
2014-07-22 00:29:00,74.7,70.0,30.05,ENE,67,0.0,0.0,86,0.00,,,0.00,weatherlink.com 1.10,2014-07-22 04:29:00,
2014-07-22 00:44:00,74.4,70.0,30.05,ENE,67,0.0,0.0,87,0.00,,,0.00,weatherlink.com 1.10,2014-07-22 04:44:00,
2014-07-22 00:59:00,74.1,70.0,30.05,ENE,67,0.0,0.0,88,0.00,,,0.00,weatherlink.com 1.10,2014-07-22 04:59:00,
2014-07-22 01:14:00,73.7,70.0,30.05,ENE,67,0.0,0.0,88,0.00,,,0.00,weatherlink.com 1.10,2014-07-22 05:14:00,
2014-07-22 01:29:00,73.3,70.0,30.05,ENE,67,0.0,0.0,89,0.00,,,0.00,weatherlink.com 1.10,2014-07-22 05:29:00,
2014-07-22 01:44:00,73.0,70.0,30.05,ENE,67,0.0,0.0,90,0.00,,,0.00,weatherlink.com 1.10,2014-07-22 05:44:00,
2014-07-22 01:59:00,72.8,70.0,30.05,ENE,67,0.0,0.0,90,0.00,,,0.00,weatherlink.com 1.10,2014-07-22 05:59:00,
2014-07-22 02:14:00,72.5,70.0,30.04,ENE,67,0.0,0.0,91,0.00,,,0.00,weatherlink.com 1.10,2014-07-22 06:14:00,
2014-07-22 02:29:00,72.3,70.0,30.04,ENE,67,0.0,0.0,91,0.00,,,0.00,weatherlink.com 1.10,2014-07-22 06:29:00,
2014-07-22 02:44:00,72.0,70.0,30.04,ENE,67,0.0,0.0,92,0.00,,,0.00,weatherlink.com 1.10,2014-07-22 06:44:00,
2014-07-22 02:59:00,71.8,69.0,30.04,ENE,67,0.0,0.0,92,0.00,,,0.00,weatherlink.com 1.10,2014-07-22 06:59:00,
2014-07-22 03:14:00,71.6,69.0,30.04,ENE,67,0.0,0.0,92,0.00,,,0.00,weatherlink.com 1.10,2014-07-22 07:14:00,
2014-07-22 03:29:00,71.4,69.0,30.04,ENE,67,0.0,0.0,93,0.00,,,0.00,weatherlink.com 1.10,2014-07-22 07:29:00,
2014-07-22 03:44:00,71.1,69.0,30.04,ENE,67,0.0,0.0,93,0.00,,,0.00,weatherlink.com 1.10,2014-07-22 07:44:00,
2014-07-22 03:59:00,70.8,69.0,30.04,ENE,67,0.0,0.0,93,0.00,,,0.00,weatherlink.com 1.10,2014-07-22 07:59:00,
2014-07-22 04:14:00,70.6,69.0,30.04,ENE,67,0.0,0.0,93,0.00,,,0.00,weatherlink.com 1.10,2014-07-22 08:14:00,
2014-07-22 04:29:00,70.4,68.0,30.04,ENE,67,0.0,0.0,93,0.00,,,0.00,weatherlink.com 1.10,2014-07-22 08:29:00,
2014-07-22 04:44:00,70.3,69.0,30.04,ENE,67,0.0,0.0,94,0.00,,,0.00,weatherlink.com 1.10,2014-07-22 08:44:00,
2014-07-22 04:59:00,70.0,68.0,30.04,ENE,67,0.0,0.0,93,0.00,,,0.00,weatherlink.com 1.10,2014-07-22 08:59:00,
2014-07-22 05:14:00,69.5,68.0,30.04,ENE,67,0.0,0.0,94,0.00,,,0.00,weatherlink.com 1.10,2014-07-22 09:14:00,
2014-07-22 05:29:00,69.4,68.0,30.04,ENE,67,0.0,0.0,94,0.00,,,0.00,weatherlink.com 1.10,2014-07-22 09:29:00,
2014-07-22 05:44:00,69.3,68.0,30.05,ENE,67,0.0,0.0,94,0.00,,,0.00,weatherlink.com 1.10,2014-07-22 09:44:00,
2014-07-22 05:59:00,69.2,68.0,30.05,ENE,67,0.0,0.0,94,0.00,,,0.00,weatherlink.com 1.10,2014-07-22 09:59:00,
2014-07-22 06:14:00,69.1,67.0,30.06,ENE,67,0.0,0.0,94,0.00,,,0.00,weatherlink.com 1.10,2014-07-22 10:14:00,
2014-07-22 06:30:00,69.0,68.0,30.06,ENE,67,0.0,0.0,95,0.00,,,0.00,weatherlink.com 1.10,2014-07-22 10:30:00,
2014-07-22 06:45:00,69.0,68.0,30.07,ENE,67,0.0,0.0,95,0.00,,,0.00,weatherlink.com 1.10,2014-07-22 10:45:00,
2014-07-22 07:00:00,69.0,68.0,30.07,ENE,67,0.0,0.0,95,0.00,,,0.00,weatherlink.com 1.10,2014-07-22 11:00:00,
2014-07-22 07:15:00,69.2,68.0,30.07,ENE,67,0.0,0.0,95,0.00,,,0.00,weatherlink.com 1.10,2014-07-22 11:15:00,
2014-07-22 07:30:00,69.6,68.0,30.07,ENE,67,0.0,0.0,95,0.00,,,0.00,weatherlink.com 1.10,2014-07-22 11:30:00,
2014-07-22 07:45:00,70.0,69.0,30.07,ENE,67,0.0,0.0,95,0.00,,,0.00,weatherlink.com 1.10,2014-07-22 11:45:00,
2014-07-22 08:00:00,70.4,69.0,30.08,East,79,0.0,2.0,94,0.00,,,0.00,weatherlink.com 1.10,2014-07-22 12:00:00,
2014-07-22 08:15:00,71.2,69.0,30.07,ENE,78,0.0,0.0,94,0.00,,,0.00,weatherlink.com 1.10,2014-07-22 12:15:00,
2014-07-22 08:30:00,72.3,70.0,30.08,ENE,78,0.0,0.0,92,0.00,,,0.00,weatherlink.com 1.10,2014-07-22 12:30:00,
2014-07-22 08:45:00,73.3,70.0,30.08,ENE,78,0.0,1.0,90,0.00,,,0.00,weatherlink.com 1.10,2014-07-22 12:45:00,
2014-07-22 09:00:00,74.4,71.0,30.08,East,96,0.0,2.0,89,0.00,,,0.00,weatherlink.com 1.10,2014-07-22 13:00:00,
2014-07-22 09:15:00,75.2,71.0,30.07,East,96,0.0,1.0,87,0.00,,,0.00,weatherlink.com 1.10,2014-07-22 13:15:00,
2014-07-22 09:30:00,76.4,72.0,30.07,East,96,0.0,1.0,86,0.00,,,0.00,weatherlink.com 1.10,2014-07-22 13:30:00,
2014-07-22 09:45:00,77.5,72.0,30.07,South,169,1.0,3.0,84,0.00,,,0.00,weatherlink.com 1.10,2014-07-22 13:45:00,
2014-07-22 10:00:00,79.2,73.0,30.07,West,269,0.0,4.0,82,0.00,,,0.00,weatherlink.com 1.10,2014-07-22 14:00:00,
2014-07-22 10:15:00,81.4,74.0,30.06,SSE,168,1.0,2.0,78,0.00,,,0.00,weatherlink.com 1.10,2014-07-22 14:15:00,
2014-07-22 10:30:00,82.4,75.0,30.06,SSE,163,0.0,3.0,77,0.00,,,0.00,weatherlink.com 1.10,2014-07-22 14:30:00,
2014-07-22 10:45:00,83.0,74.0,30.06,SSE,159,1.0,3.0,75,0.00,,,0.00,weatherlink.com 1.10,2014-07-22 14:45:00,
2014-07-22 11:00:00,84.1,75.0,30.05,SSE,163,2.0,4.0,74,0.00,,,0.00,weatherlink.com 1.10,2014-07-22 15:00:00,
2014-07-22 11:15:00,84.9,75.0,30.05,SW,230,2.0,4.0,72,0.00,,,0.00,weatherlink.com 1.10,2014-07-22 15:15:00,
2014-07-22 11:30:00,85.9,75.0,30.05,South,169,0.0,3.0,69,0.00,,,0.00,weatherlink.com 1.10,2014-07-22 15:30:00,
2014-07-22 12:00:00,87.2,74.0,30.04,WNW,294,0.0,4.0,64,0.00,,,0.00,weatherlink.com 1.10,2014-07-22 16:00:00,
2014-07-22 12:15:00,87.6,72.0,30.04,SSE,166,0.0,5.0,61,0.00,,,0.00,weatherlink.com 1.10,2014-07-22 16:15:00,
2014-07-22 12:30:00,86.7,72.0,30.04,WSW,239,0.0,1.0,62,0.00,,,0.00,weatherlink.com 1.10,2014-07-22 16:30:00,
2014-07-22 12:45:00,86.3,71.0,30.03,West,269,0.0,2.0,61,0.00,,,0.00,weatherlink.com 1.10,2014-07-22 16:45:00,
2014-07-22 13:00:00,87.7,72.0,30.03,WNW,300,1.0,2.0,59,0.00,,,0.00,weatherlink.com 1.10,2014-07-22 17:00:00,
2014-07-22 13:15:00,89.4,71.0,30.02,WSW,258,0.0,3.0,55,0.00,,,0.00,weatherlink.com 1.10,2014-07-22 17:15:00,
2014-07-22 13:31:00,90.0,71.0,30.02,West,273,2.0,6.0,54,0.00,,,0.00,weatherlink.com 1.10,2014-07-22 17:31:00,
2014-07-22 13:46:00,90.4,70.0,30.02,West,275,0.0,6.0,51,0.00,,,0.00,weatherlink.com 1.10,2014-07-22 17:46:00,
2014-07-22 14:01:00,91.1,68.0,30.01,West,277,0.0,6.0,46,0.00,,,0.00,weatherlink.com 1.10,2014-07-22 18:01:00,
2014-07-22 14:16:00,92.2,68.0,30.01,WSW,256,3.0,6.0,45,0.00,,,0.00,weatherlink.com 1.10,2014-07-22 18:16:00,
2014-07-22 14:31:00,92.7,67.0,30.00,West,278,6.0,6.0,43,0.00,,,0.00,weatherlink.com 1.10,2014-07-22 18:31:00,
2014-07-22 14:46:00,93.5,68.0,30.01,WSW,240,2.0,3.0,43,0.00,,,0.00,weatherlink.com 1.10,2014-07-22 18:46:00,
2014-07-22 15:01:00,93.4,69.0,30.00,West,260,1.0,5.0,45,0.00,,,0.00,weatherlink.com 1.10,2014-07-22 19:01:00,
2014-07-22 15:16:00,93.2,68.0,30.00,SSW,205,2.0,10.0,44,0.00,,,0.00,weatherlink.com 1.10,2014-07-22 19:16:00,
2014-07-22 15:31:00,92.9,69.0,30.00,West,261,2.0,14.0,45,0.00,,,0.00,weatherlink.com 1.10,2014-07-22 19:31:00,
2014-07-22 15:46:00,92.9,70.0,29.99,SW,226,1.0,8.0,47,0.00,,,0.00,weatherlink.com 1.10,2014-07-22 19:46:00,
2014-07-22 16:01:00,93.4,68.0,29.99,WSW,255,2.0,10.0,44,0.00,,,0.00,weatherlink.com 1.10,2014-07-22 20:01:00,
2014-07-22 16:16:00,93.4,70.0,29.98,WNW,295,0.0,5.0,47,0.00,,,0.00,weatherlink.com 1.10,2014-07-22 20:16:00,
2014-07-22 16:31:00,93.0,69.0,29.98,NNE,24,0.0,8.0,46,0.00,,,0.00,weatherlink.com 1.10,2014-07-22 20:31:00,
2014-07-22 16:46:00,92.6,70.0,29.98,WSW,248,3.0,7.0,47,0.00,,,0.00,weatherlink.com 1.10,2014-07-22 20:46:00,
2014-07-22 17:01:00,92.6,70.0,29.98,WSW,257,1.0,10.0,48,0.00,,,0.00,weatherlink.com 1.10,2014-07-22 21:01:00,
2014-07-22 17:16:00,92.9,70.0,29.98,North,360,2.0,5.0,48,0.00,,,0.00,weatherlink.com 1.10,2014-07-22 21:16:00,
2014-07-22 17:31:00,93.1,71.0,29.98,NW,314,3.0,6.0,48,0.00,,,0.00,weatherlink.com 1.10,2014-07-22 21:31:00,
2014-07-22 17:46:00,92.6,70.0,29.97,West,266,3.0,7.0,47,0.00,,,0.00,weatherlink.com 1.10,2014-07-22 21:46:00,
2014-07-22 18:01:00,92.7,70.0,29.97,WSW,256,2.0,5.0,48,0.00,,,0.00,weatherlink.com 1.10,2014-07-22 22:01:00,
2014-07-22 18:16:00,92.3,70.0,29.97,West,267,0.0,7.0,49,0.00,,,0.00,weatherlink.com 1.10,2014-07-22 22:16:00,
2014-07-22 18:31:00,91.9,69.0,29.97,West,260,2.0,5.0,48,0.00,,,0.00,weatherlink.com 1.10,2014-07-22 22:31:00,
2014-07-22 18:46:00,91.2,70.0,29.97,North,350,0.0,2.0,50,0.00,,,0.00,weatherlink.com 1.10,2014-07-22 22:46:00,
2014-07-22 19:01:00,90.5,70.0,29.97,SW,216,0.0,2.0,51,0.00,,,0.00,weatherlink.com 1.10,2014-07-22 23:01:00,
2014-07-22 19:16:00,90.0,71.0,29.97,West,264,3.0,5.0,53,0.00,,,0.00,weatherlink.com 1.10,2014-07-22 23:16:00,
2014-07-22 19:31:00,89.5,70.0,29.97,West,276,0.0,3.0,53,0.00,,,0.00,weatherlink.com 1.10,2014-07-22 23:31:00,
2014-07-22 19:46:00,89.2,70.0,29.97,West,276,0.0,2.0,53,0.00,,,0.00,weatherlink.com 1.10,2014-07-22 23:46:00,
2014-07-22 20:01:00,88.7,70.0,29.96,WNW,291,0.0,1.0,55,0.00,,,0.00,weatherlink.com 1.10,2014-07-23 00:01:00,
2014-07-22 20:16:00,88.0,70.0,29.96,WNW,287,0.0,3.0,56,0.00,,,0.00,weatherlink.com 1.10,2014-07-23 00:16:00,
2014-07-22 20:31:00,87.1,70.0,29.97,West,263,0.0,1.0,57,0.00,,,0.00,weatherlink.com 1.10,2014-07-23 00:31:00,
2014-07-22 20:46:00,86.0,70.0,29.97,West,263,0.0,1.0,59,0.00,,,0.00,weatherlink.com 1.10,2014-07-23 00:46:00,
2014-07-22 21:01:00,85.3,70.0,29.97,West,263,0.0,1.0,60,0.00,,,0.00,weatherlink.com 1.10,2014-07-23 01:01:00,
2014-07-22 21:16:00,84.5,70.0,29.97,West,263,0.0,0.0,62,0.00,,,0.00,weatherlink.com 1.10,2014-07-23 01:16:00,
2014-07-22 21:31:00,83.8,70.0,29.98,West,263,0.0,0.0,63,0.00,,,0.00,weatherlink.com 1.10,2014-07-23 01:31:00,
2014-07-22 21:46:00,83.4,70.0,29.97,West,263,0.0,0.0,64,0.00,,,0.00,weatherlink.com 1.10,2014-07-23 01:46:00,
2014-07-22 22:01:00,83.1,70.0,29.97,West,263,0.0,0.0,64,0.00,,,0.00,weatherlink.com 1.10,2014-07-23 02:01:00,
2014-07-22 22:16:00,82.4,70.0,29.98,West,263,0.0,0.0,66,0.00,,,0.00,weatherlink.com 1.10,2014-07-23 02:16:00,
2014-07-22 22:31:00,81.9,70.0,29.99,West,263,0.0,0.0,68,0.00,,,0.00,weatherlink.com 1.10,2014-07-23 02:31:00,
2014-07-22 22:46:00,81.2,70.0,29.99,West,263,0.0,0.0,69,0.00,,,0.00,weatherlink.com 1.10,2014-07-23 02:46:00,
2014-07-22 23:01:00,80.3,71.0,29.99,West,263,0.0,0.0,72,0.00,,,0.00,weatherlink.com 1.10,2014-07-23 03:01:00,
2014-07-22 23:16:00,79.8,71.0,29.98,West,263,0.0,0.0,74,0.00,,,0.00,weatherlink.com 1.10,2014-07-23 03:16:00,
2014-07-22 23:31:00,79.3,70.0,29.98,West,263,0.0,0.0,74,0.00,,,0.00,weatherlink.com 1.10,2014-07-23 03:31:00,